Погода в Новоприморском

Россия / Ростовская область     47°18′13″N   39°04′17″E
темп.,
°C
ветер,
м/с
пор.,
м/с
влажн.,
%
обл.,
%
осадки,
мм/ч
давл.,
гПа
погр.,
м
28 июня, вт
вт2800:00+22св6134769 0.1 1014330
03:00+20св6144560 0.1 1014356
06:00+20св61250100 0.0 1014321
09:00+24всв5843100 0.0 1014561
12:00+28всв3435100 0.0 10141151
15:00+29св3432100 0.0 10131369
18:00+29ссв4635100 0.0 1012447
21:00+25всв1254100 0.0 101318
29 июня, ср
ср2900:00+22ссв4975100 0.0 1013189
03:00+21св488050 0.1 1013169
06:00+21св611835 0.9 1014345
09:00+25всв686511 0.9 1014660
12:00+28всв56485 0.0 10141184
15:00+30св56400 0.0 10131497
18:00+29св66410 0.0 10141417
21:00+24св611513 0.0 1014303
30 июня, чт
чт3000:00+21всв511535 0.0 1016335
03:00+19всв511460 0.0 1016325
06:00+19в611445 0.0 1016359
09:00+23в67335 0.0 1016748
12:00+26всв4535100 0.0 10161335
15:00+26св663696 0.0 10151050
18:00+26св5537100 0.0 10151195
21:00+22ссв59485 0.0 1015243
1 июля, пт
пт100:00+19св57500 0.0 1016150
03:00+18ссв59560 0.0 1016188
06:00+18св510580 0.0 1017277
09:00+23св56411 0.0 10161282
12:00+27св56340 0.0 10161444
15:00+27ссв67350 0.0 10151521
18:00+27ссв67350 0.0 10151521
21:00+23ссв58440 0.0 1017138
2 июля, сб
сб200:00+21св813480 0.0 1017536
03:00+18св511520 0.0 1018326
06:00+18св69530 0.0 1019288
09:00+22св78380 0.0 10201359
12:00+25св78310 0.0 10191555
15:00+27св67290 0.0 10181427
18:00+26св67300 0.0 10181349
21:00+22ссв510420 0.0 1019230